Weather History for Lamar, CO

Change the Weather History Date:

Tuesday, October 19, 2010

  Actual Average Record
Temperature  
Mean Temperature 54 °F 52 °F  
Max Temperature 71 °F 69 °F 91 °F (2003)
Min Temperature 37 °F 34 °F 15 °F (1989)
Degree Days  
Heating Degree Days 11 14  
Month to date heating degree days 124 190  
Since 1 July heating degree days 135 273  
Cooling Degree Days 0 0  
Month to date cooling degree days 4 8  
Year to date cooling degree days 1451 1120  
Growing Degree Days 5 (Base 50)    
Moisture  
Dew Point 33 °F    
Average Humidity 52    
Maximum Humidity 79    
Minimum Humidity 25    
Precipitation  
Precipitation 0.00 in 0.02 in 0.16 in (1960)
Month to date precipitation T 0.51  
Year to date precipitation 11.41 14.13  
Snow  
Snow 0.00 in - - ()
Month to date snowfall 0.0  
Snow Depth 0.00 in    
Sea Level Pressure  
Sea Level Pressure 30.03 in    
Wind  
Wind Speed 4 mph (South)    
Max Wind Speed 10 mph    
Max Gust Speed 14 mph    
Visibility 10 miles    
Events      
T = Trace of Precipitation, MM = Missing Value Source: NWS Daily Summary

Daily Weather History Graph

Daily Weather History Graph

Search for Another Location

Airport:

Trip Planner

Search our weather history database for the weather conditions in past years. The results will help you decide how hot, cold, wet, or windy it might be!

Date:

Astronomy

Oct. 19, 2010 Rise Set
Actual Time 7:03 AM MDT 6:07 PM MDT
Civil Twilight 6:36 AM MDT 6:34 PM MDT
Nautical Twilight 6:05 AM MDT 7:04 PM MDT
Astronomical Twilight 5:35 AM MDT 7:35 PM MDT
Moon 4:15 PM MDT (10/19) 3:53 AM MDT (10/19)
Length of Visible Light 11h 57m
Length of Day
11h 04m
Waxing Gibbous, 90% of the Moon is Illuminated
Oct 19
Waxing Gibbous
Oct 22
Full
Oct 30
Last Quarter
Nov 5
New
Nov 13
First Quarter

Hourly Weather History & Observations

Time (MDT) Temp. Windchill Dew Point Humidity Pressure Visibility Wind Dir Wind Speed Gust Speed Precip Events Conditions
12:53 AM 48.9 °F - 36.0 °F 61% 30.05 in 10.0 mi Calm Calm - N/A   Overcast
1:53 AM 48.9 °F - 36.0 °F 61% 30.05 in 10.0 mi East 3.5 mph - N/A   Overcast
2:53 AM 48.0 °F - 35.1 °F 61% 30.05 in 10.0 mi SW 3.5 mph - N/A   Overcast
3:53 AM 48.9 °F - 35.1 °F 59% 30.04 in 10.0 mi Calm Calm - N/A   Overcast
4:53 AM 48.0 °F - 37.0 °F 66% 30.05 in 10.0 mi Calm Calm - N/A   Overcast
5:53 AM 46.9 °F - 37.0 °F 68% 30.06 in 10.0 mi Calm Calm - N/A   Overcast
6:53 AM 39.0 °F 36.8 °F 33.1 °F 79% 30.07 in 10.0 mi ESE 3.5 mph - N/A   Clear
7:53 AM 43.0 °F - 34.0 °F 71% 30.09 in 10.0 mi Calm Calm - N/A   Clear
8:53 AM 52.0 °F - 35.1 °F 53% 30.08 in 10.0 mi East 3.5 mph - N/A   Clear
9:53 AM 57.9 °F - 34.0 °F 41% 30.07 in 10.0 mi Variable 6.9 mph - N/A   Clear
10:53 AM 63.0 °F - 34.0 °F 34% 30.05 in 10.0 mi South 9.2 mph - N/A   Clear
11:53 AM 64.9 °F - 34.0 °F 32% 30.03 in 10.0 mi Variable 3.5 mph - N/A   Clear
1:53 PM 69.1 °F - 35.1 °F 29% 29.97 in 10.0 mi North 4.6 mph - N/A   Clear
2:53 PM 71.1 °F - 34.0 °F 26% 29.95 in 10.0 mi North 5.8 mph - N/A   Clear
3:53 PM 71.1 °F - 34.0 °F 26% 29.95 in 10.0 mi NNW 4.6 mph - N/A   Clear
4:53 PM 69.1 °F - 32.0 °F 25% 29.96 in 10.0 mi Calm Calm - N/A   Clear
5:53 PM 64.0 °F - 30.0 °F 28% 29.96 in 10.0 mi SSE 3.5 mph - N/A   Clear
6:53 PM 52.0 °F - 28.9 °F 41% 30.03 in 10.0 mi South 4.6 mph - N/A   Clear
7:53 PM 48.0 °F - 28.0 °F 46% 30.04 in 10.0 mi SSW 9.2 mph - N/A   Clear
8:53 PM 46.0 °F 42.5 °F 27.0 °F 47% 30.04 in 10.0 mi SSW 6.9 mph - N/A   Clear
9:53 PM 44.1 °F 41.5 °F 27.0 °F 51% 30.05 in 10.0 mi WSW 4.6 mph - N/A   Clear
10:53 PM 41.0 °F - 26.1 °F 55% 30.06 in 10.0 mi Calm Calm - N/A   Clear
11:53 PM 43.0 °F 40.3 °F 27.0 °F 53% 30.05 in 10.0 mi SW 4.6 mph - N/A   Clear